Location: Laubh�tte
(51.8002°N, 10.2349°E)
Time: 12:50:43
(UTC+00:00)

Daily predictions for brighter satellites

Satellite Brightness Start Highest point End
(mag) Time Altitude Azimuth Time Altitude Azimuth Time Altitude Azimuth
Cosmos 2285 Rocket 4.2 15:40:08 10° NNW 15:46:27 55° ENE 15:52:40 10° SE
SL-16 R/B 4.1 15:42:20 10° N 15:47:42 31° NW 15:53:02 10° WSW
COSMOS 2428 3.5 15:46:14 10° SW 15:51:47 49° NW 15:57:22 10° NNE
X-37B 3.4 15:53:34 10° SSE 15:53:47 10° SSE 15:54:00 10° SSE
USA 267 3.5 15:48:18 10° E 15:54:41 57° N 16:01:05 10° WNW
PAYLOAD B 4.3 15:50:47 10° SSE 15:56:18 65° ENE 16:01:49 10° NNW
Cosmos 1842 Rocket 4.3 15:52:48 10° SSW 15:57:03 53° WNW 16:01:20 10° N
NOSS 0 Rocket 4.1 15:50:50 10° SW 15:57:06 79° WNW 16:03:22 10° NNE
Cosmos 1805 Rocket 3.6 15:53:08 10° N 15:57:38 87° E 16:02:04 10° S
H-2A R/B 3.8 15:57:11 10° ENE 15:58:50 11° NE 16:00:28 10° NNE
Cosmos 1980 Rocket 4.3 15:57:45 10° NNW 15:59:08 11° N 16:00:31 10° N
Cosmos 1356 3.3 15:55:45 10° N 15:59:12 72° ENE 16:02:37 10° SSE
Cosmos 44 Rocket 4.2 15:55:39 10° NNW 16:00:14 32° NNE 16:04:52 10° E
Meteor 1-20 Rocket 4.5 15:55:12 10° N 16:00:56 52° ENE 16:06:35 10° SSE
Meteor 1-4 Rocket 4.3 15:59:13 10° ESE 16:01:11 14° E 16:03:08 10° NE
BREEZE-M DEB (TANK) 4.4 15:58:35 10° WSW 16:02:34 69° SSE 16:16:26 10° E
SJ-7 4.3 15:58:38 10° SSE 16:02:36 84° ENE 16:06:38 10° NNW
Cosmos 1666 Rocket 3.7 16:00:37 10° N 16:04:58 54° ENE 16:09:20 10° SSE
Cosmos 1939 Rocket 4.2 16:02:33 10° ESE 16:05:19 19° ENE 16:08:06 10° NNE
Cosmos 44 4.0 16:01:16 10° NW 16:06:31 67° SW 16:11:53 10° SSE
Cosmos 2237 Rocket 2.3 16:01:20 10° SW 16:06:58 79° WNW 16:12:40 10° NNE
Cosmos 389 Rocket 2.5 16:03:44 10° S 16:07:05 56° E 16:10:26 10° NNE
CZ-4 R/B 3.2 16:06:07 10° ENE 16:07:44 12° NE 16:09:22 10° NNE
PSLV R/B 4.0 16:06:13 10° SSE 16:10:20 83° WSW 16:14:24 10° NNW
SL-16 R/B 4.3 16:07:26 10° NW 16:10:31 15° NNW 16:13:35 10° N
CZ-4B R/B 3.1 16:05:33 10° SSE 16:10:46 60° ENE 16:15:59 10° N
H-2A R/B 2.4 16:09:22 10° SSE 16:13:34 83° ENE 16:17:38 10° NNW
Cosmos 2369 Rocket 2.4 16:08:27 10° NNW 16:14:00 49° NE 16:19:29 10° SE
Cosmos 1943 Rocket 2.1 16:10:06 10° NNW 16:15:41 71° ENE 16:21:15 10° SE
ADEOS Rocket 3.6 16:08:06 10° NNE 16:15:55 81° ESE 16:23:39 10° SSW
MOS 1-B 4.5 16:10:16 10° SSE 16:16:05 85° WSW 16:21:57 10° NNW
H-2A R/B 2.3 16:16:16 10° NNE 16:20:22 47° E 16:24:31 10° S
NOAA 12 4.1 16:15:08 10° SSE 16:20:24 67° ENE 16:25:42 10° N
Cosmos 2221 4.1 16:16:38 10° SW 16:20:36 35° WNW 16:24:34 10° N
Cosmos 1980 4.3 16:21:25 10° SW 16:27:01 57° NW 16:32:38 10° NNE
Okean O Rocket 1.5 16:22:49 10° SSE 16:27:09 67° ENE 16:31:32 10° N
NOAA 6 4.4 16:22:02 10° S 16:27:10 72° WSW 16:32:19 10° NNW
CRYOSAT 2 4.3 16:22:54 10° N 16:27:49 75° E 16:32:42 10° S
Cosmos 1782 3.7 16:24:41 10° SSE 16:28:05 28° E 16:31:08 12° NE
Okean-O 3.9 16:25:43 10° ESE 16:28:59 20° ENE 16:32:15 10° N
Cosmos 1633 Rocket 3.0 16:24:51 10° N 16:29:15 76° E 16:33:36 10° SSE
ISS -3.8 16:27:13 10° W 16:30:36 90° E 16:32:58 18° E
H-2A R/B 4.2 16:28:04 10° S 16:31:45 42° W 16:35:30 10° NNW
Cosmos 1933 3.3 16:29:39 10° S 16:33:39 62° E 16:37:43 10° NNE
Cosmos 2218 Rocket 3.9 16:29:26 10° N 16:35:36 71° ENE 16:41:44 10° SSE
Cosmos 2366 rocket 3.9 16:30:22 10° N 16:36:34 70° ENE 16:42:41 10° SSE
ERS-2 3.3 16:36:10 20° ENE 16:37:22 23° E 16:40:22 10° SSE
Meteor 1-25 Rocket 4.2 16:31:47 10° NNW 16:37:27 87° E 16:43:10 10° SSE
Cosmos 1867 3.7 16:34:46 10° SW 16:40:14 80° NW 16:44:54 15° NE
Envisat 3.9 16:38:33 10° S 16:43:30 53° W 16:48:29 10° NNW
Cosmos 371 Rocket 4.3 16:43:42 10° N 16:47:47 26° NE 16:49:18 22° ENE
Lacrosse 5 rocket 0.9 16:44:49 10° SW 16:48:27 81° SSE 16:50:15 28° ENE
Cosmos 773 Rocket 4.0 16:44:48 10° SSW 16:50:01 67° ESE 16:54:45 13° NNE
YAOGAN 6 4.1 16:49:08 10° SSW 16:52:34 40° W 16:55:58 10° NNW
Cosmos 2322 Rocket 4.4 16:51:50 10° NW 16:54:00 12° NNW 16:56:10 10° N
Cosmos 1606 3.8 16:51:43 10° SSW 16:55:27 45° WNW 16:59:12 10° N
CZ-4B R/B 1.6 16:56:25 36° ENE 16:57:00 41° E 17:00:01 10° S
FengYun 1-2 T 4.2 16:52:06 10° SSE 16:57:38 88° WSW 17:03:11 10° NNW
Feng Yun 1-1 Rocket 4.2 16:52:06 10° SSE 16:57:45 69° ENE 17:03:18 10° NNW
Landsat 5 4.2 16:53:38 10° N 16:58:01 60° WNW 17:02:27 10° SSW
SL-16 R/B 2.3 16:54:25 10° SSW 17:00:06 81° WNW 17:05:04 14° NNE
USA 215 4.4 16:59:21 20° E 17:01:57 25° SE 17:07:11 10° S
BREEZE-M DEB (TANK) 3.1 17:01:34 10° SW 17:03:26 24° SSE 17:03:26 24° SSE
Cosmos 1500 3.3 17:01:07 10° N 17:04:50 47° ENE 17:08:33 10° SSE
SMAP 4.0 17:02:12 10° S 17:06:44 50° W 17:11:17 10° NNW
Cosmos 1656 Rocket 3.6 17:03:57 10° NNW 17:09:37 68° ENE 17:15:10 10° SE
YAOGAN 1 3.0 17:09:19 32° E 17:10:20 37° ENE 17:14:19 10° N
SL-24 DEB 4.4 17:06:00 10° NNE 17:10:39 52° E 17:15:14 10° SSE
USA 238 DEB 4.5 17:06:14 10° S 17:11:40 28° ESE 17:13:06 26° E
Cosmos 1470 Rocket 3.7 17:07:25 10° NNW 17:11:46 72° W 17:16:03 10° S
MOS 1 Rocket 4.3 17:13:25 30° E 17:13:49 31° E 17:18:33 10° SSE
Cosmos 1151 Rocket 3.3 17:09:35 10° SSW 17:13:50 67° WNW 17:18:06 10° N
OPS 6432 4.4 17:13:40 10° SW 17:17:42 85° NW 17:18:25 53° NE
Cosmos 2263 4.1 17:12:48 10° NNW 17:18:27 87° WSW 17:24:04 10° SSE
Cosmos 1934 Rocket 4.3 17:14:20 10° N 17:20:24 43° ENE 17:26:22 10° SE
Cosmos 1515 Rocket 3.4 17:17:25 10° S 17:21:48 80° E 17:25:08 18° NNE
CZ-2C R/B 2.9 17:17:33 10° SSE 17:22:22 56° ENE 17:27:04 10° N
Cosmos 1238 Rocket 3.0 17:20:05 10° N 17:23:53 53° ENE 17:28:28 10° SSE
Cosmos 923 Rocket 4.4 17:19:48 10° S 17:24:34 38° ESE 17:24:50 37° E
COSMO-SKYMED 1 2.5 17:23:06 37° NE 17:24:37 58° ESE 17:28:54 10° S
SAR-Lupe-4 4.3 17:29:14 38° SSE 17:29:14 38° SSE 17:31:45 10° S
USA 281 3.1 17:22:40 10° SE 17:29:10 69° ENE 17:35:43 10° NNW
X-37B 2.5 17:27:08 10° SW 17:29:28 21° S 17:29:28 21° S
Cosmos 2360 Rocket 4.4 17:27:57 10° NNW 17:29:55 12° NNW 17:31:52 10° N
CSL-04 Debris 4.4 17:27:30 28° ESE 17:29:57 46° ENE 17:35:11 10° N
Cosmos 2333 Rocket 4.4 17:27:00 10° WNW 17:30:24 16° NNW 17:33:48 10° NNE
Nadezhda 3 Rocket 4.0 17:25:04 10° S 17:31:17 59° E 17:37:31 10° NNE
Cosmos 2219 Rocket 4.4 17:28:57 10° WNW 17:32:21 16° NNW 17:35:45 10° NNE
Helios 1A Rocket 2.7 17:33:26 61° ESE 17:33:49 66° ENE 17:37:50 10° N
Meteor 2-6 Rocket 4.1 17:28:50 10° S 17:34:18 61° E 17:37:14 27° NNE
Cosmos 2228 Rocket 3.1 17:29:58 10° S 17:34:24 55° E 17:34:28 55° E
Meteor 1-4 Rocket 3.3 17:32:19 10° SSW 17:35:48 51° WNW 17:37:26 27° N
Cosmos 1821 Rocket 3.9 17:30:12 10° N 17:36:29 83° E 17:42:49 10° S
H-2A R/B 2.1 17:35:18 34° SE 17:37:15 53° ENE 17:42:12 10° N
USA 267 3.2 17:34:11 33° ESE 17:37:26 79° NNE 17:44:00 10° WNW
Cosmos 1812 3.8 17:34:26 10° S 17:36:35 31° SSE 17:36:35 31° SSE
Meteor 1-11 Rocket 3.7 17:33:53 10° N 17:39:37 62° ENE 17:45:27 10° SSE
Cosmos 1939 Rocket 3.5 17:36:05 10° S 17:39:53 54° W 17:43:47 10° NNW
NOSS 3-3 (A) 4.5 17:33:25 10° NW 17:40:45 88° SW 17:47:58 15° SE
NOSS 3-3 (C) 4.5 17:33:29 10° NW 17:40:51 88° SW 17:47:58 15° SE
Cosmos 1933 Rocket 4.3 17:37:24 10° NNW 17:41:47 53° W 17:46:07 10° S
CZ-4 R/B 1.2 17:41:26 62° SE 17:42:03 81° ENE 17:46:09 10° NNW
Cosmos 44 Rocket 3.5 17:37:06 10° NW 17:42:17 78° SW 17:45:08 27° SSE
CSL-04 Rocket 3.6 17:44:04 51° E 17:44:43 55° ENE 17:49:53 10° N
Cosmos 1980 Rocket 4.2 17:43:06 10° N 17:45:17 13° NNE 17:45:17 13° NNE
IRS-1C Rocket 4.4 17:40:59 10° S 17:46:14 67° WSW 17:51:31 10° NNW
SL-24 R/B 4.1 17:49:33 56° SSW 17:49:33 56° SSW 17:52:29 10° SSW
Cosmos 1680 Rocket 4.0 17:46:20 10° S 17:50:18 42° SE 17:50:18 42° SE
Cosmos 2237 Rocket 4.1 17:47:35 10° W 17:51:57 22° NW 17:55:39 13° N
Cosmos 1603 3.5 17:50:01 10° SSW 17:55:38 81° ESE 17:56:56 55° NE
H-2A R/B 4.2 17:52:45 10° N 17:56:07 24° WNW 17:59:32 10° WSW
CZ-2D R/B 4.1 17:53:03 10° S 17:56:46 49° W 18:00:32 10° NNW
SL-16 R/B 4.4 17:55:49 10° N 17:57:21 11° N 17:57:42 11° N
Cosmos 2369 Rocket 3.7 17:52:44 10° NW 17:57:55 37° WSW 18:03:02 10° S
Cosmos 1943 Rocket 4.5 17:54:37 10° NW 17:58:54 23° WSW 18:03:13 10° SSW
Cosmos 1943 3.0 17:53:22 10° SSW 17:59:01 77° ESE 17:59:58 62° NE
Cosmos 1538 Rocket 4.5 17:55:52 10° SW 18:01:11 60° WNW 18:03:44 30° N
Cosmos 1371 Rocket 3.8 17:58:06 10° NNW 18:03:20 84° ENE 18:03:40 77° SE
Okean-O 3.0 18:00:41 10° S 18:05:04 62° WSW 18:09:30 10° NNW
ISS -1.8 18:04:02 10° W 18:05:55 30° W 18:05:55 30° W
ARGOS 3.2 18:08:32 61° NNE 18:08:32 61° NNE 18:13:07 10° NNW
CENTAUR R/B 3.2 18:03:36 10° S 18:07:44 37° SSE 18:07:44 37° SSE
Cosmos 2056 Rocket 3.4 18:04:18 10° NNW 18:09:29 82° NNE 18:09:29 82° NNE
ERS-2 3.6 18:10:45 34° WNW 18:11:00 34° WNW 18:14:21 10° SW
SKYMED 2 4.3 18:11:43 42° NNW 18:12:42 51° WNW 18:16:54 10° SW
Cosmos 1869 Rocket 4.2 18:12:07 10° NNW 18:16:32 56° W 18:17:48 40° SSW
NOSS 3-2 (C) 4.3 18:11:51 10° SSW 18:15:09 33° SSE 18:15:09 33° SSE
Cosmos 1605 Rocket 4.2 18:17:08 10° N 18:21:48 53° NNE 18:21:48 53° NNE
Cosmos 1624 Rocket 4.2 18:21:01 10° NNW 18:25:56 70° WNW 18:25:56 70° WNW
Meteor 1-10 Rocket 4.4 18:21:55 10° SSW 18:27:31 68° WNW 18:28:50 51° NNW
Lacrosse 5 rocket 3.4 18:24:24 10° W 18:25:53 21° WNW 18:25:53 21° WNW
Cosmos 371 Rocket 3.9 18:23:46 10° NNW 18:28:00 56° WNW 18:28:00 56° WNW
CZ-4B R/B 4.4 18:29:34 15° WNW 18:29:34 15° WNW 18:30:53 10° W
NOSS 3-2 (A) 3.6 18:36:40 10° SW 18:41:27 64° SW 18:41:27 64° SW
SL-16 R/B 4.1 18:40:40 10° W 18:45:07 23° NW 18:46:58 20° N
USA 215 3.4 18:46:42 62° SSW 18:46:42 62° SSW 18:52:17 10° SW
YAOGAN 1 4.4 18:46:28 30° W 18:46:30 30° W 18:50:19 10° NNW
MOS 1 Rocket 4.4 18:52:44 50° W 18:52:44 50° W 18:57:28 10° SW
USA 238 DEB 4.0 18:55:16 10° SW 19:00:35 60° WSW 19:00:35 60° WSW
USA 238 4.0 18:55:21 10° SW 19:00:38 60° WSW 19:00:38 60° WSW
H-2A R/B 3.9 19:15:55 25° WSW 19:16:57 27° W 19:21:16 10° NW
USA 267 4.0 19:21:32 46° WSW 19:21:32 46° WSW 19:27:05 10° WNW
